Find Starlink 31450

NORAD ID: 59006 Int'l Des: 2024-036 Owner: SPXS Country: US Constellation: starlink operational
LEOCIRCULAR

Live-Position

3D-Globus wird geladen...

Über Starlink 31450

Beschreibung wird geladen...

Nächste Überflüge

Passes for default location (London). Set your location on the main map for personalized predictions.

Höhenverlauf

Loading altitude history...

Zweizeiliger Elementsatz

1 59006U 24036J 26126.41796102 -.00000278 00000-0 27251-5 0 9992
2 59006 53.1588 169.8453 0000926 90.3127 269.7979 15.30185387124161
Epoch: 6. Mai 2026 • Age: 15 hours

Aktueller Status

Höhe 478.9 km
Geschwindigkeit 7.63 km/s
Subsatellitenpunkt 42.77°N, 68.5°E
Startdatum 23. Feb. 2024
Alter 2.1 years
Typ internet

Technische Details

Klassifizierung Payload
Masse 730.00 kg
Trockenmasse 700.00 kg
Gesamtmasse 730.00 kg
Länge 0.30 m
Durchmesser 4.10 m
Spannweite 29.00 m
Form Box + pan
Hersteller SPXS
Bus-Typ Starlink V2M
Phasenstatus In Orbit
Besitzer/Staat SPXS/US

Most Searched